Вернуться в каталог

COSMOS 2471

GLONASS

АктивенНавигацияMEO
NORAD 37372·PAYLOAD·🇷🇺 Russia

Запущен Feb 26, 2011 с Plesetsk Cosmodrome

Loading…

Ближайшие Пролёты (ближайшие 24 часа)

TLE

СвежийSource: Space-Track

Эпоха: Sep 13, 2026, 13:48 UTC

1 37372U 11009A   26256.57513797 -.00000050  00000-0  00000-0 0  9994
2 37372  65.3519 311.4981 0008361 319.7392  93.3768  2.12911142120969

Отслеживайте COSMOS 2471 в реальном времени с AllMySat

Download on the App Store